Simultaneous Nadir Overpasses (SNOs) Predictions

Prediction of SNOs between GOES-17 and TERRA Satellite Orbit:

Table of predicted SNOs for the next 14.0 days since TLE Epoch: 5/14/2022
Index Date Time (GOES-17) GOES-17 Lat,Lon TERRA Lat,Lon Distance(km) Time Diff (sec)
1 05/15/2022 19:27:12 0.04,-137.20 0.06,-137.16 5.46 80
2 05/17/2022 19:17:36 0.03,-137.19 -0.59,-134.20 340.13 80
3 05/18/2022 07:38:58 -0.03,-137.19 -0.51,-139.39 250.86 80
4 05/20/2022 07:24:02 -0.02,-137.17 0.15,-136.44 83.67 80
5 05/22/2022 07:11:46 -0.02,-137.14 0.76,-133.47 417.95 80
6 05/22/2022 19:32:59 0.02,-137.14 0.34,-138.62 169.02 80
7 05/24/2022 19:23:22 0.01,-137.12 -0.29,-135.66 165.41 80
8 05/25/2022 07:44:45 -0.01,-137.11 -0.80,-140.85 425.52 80
9 05/26/2022 19:11:05 0.01,-137.09 -0.92,-132.70 499.64 80
10 05/27/2022 07:32:28 -0.01,-137.08 -0.16,-137.89 91.41 80
